Hourly Data Report for October 24, 2015

All times are specified in Local Standard Time (LST). Add 1 hour to adjust for Daylight Saving Time where and when it is observed.

KITCHENER/WATERLOO
ONTARIO

43°27'39.000" N
80°22'43.000" W
321.60 m
6144239
71368
YKF

Download Data

Hourly Data (October 2015)
Hourly Data Report for October 24, 2015
Temp Definition
°C
Dew Point Temp Definition
°C
Rel Hum Definition
%
Wind Dir Definition
10's deg

Wind Spd Definition
km/h
Visibility Definition
km
Stn Press Definition
kPa
Hmdx Definition


Wind Chill Definition


Weather Definition


TIME
00:00 Legend Double Dagger 6.2 3.0 80 10 18 16.1 98.38     LegendNANA
01:00 Legend Double Dagger 6.3 2.9 79 10 21 16.1 98.30     LegendNANA
02:00 Legend Double Dagger 6.1 2.8 79 9 15 16.1 98.25     LegendNANA
03:00 Legend Double Dagger 6.1 3.1 81 11 8 16.1 98.24     LegendNANA
04:00 Legend Double Dagger 6.1 3.6 84 9 11 16.1 98.15     LegendNANA
05:00 Legend Double Dagger 6.2 3.9 85 8 15 16.1 98.01     LegendNANA
06:00 Legend Double Dagger 6.5 4.0 84 10 9 16.1 98.06     LegendNANA
07:00 Legend Double Dagger 7.0 4.0 81 11 11 16.1 97.96     LegendNANA
08:00 Legend Double Dagger 7.3 4.1 80 10 11 16.1 97.92     LegendNANA
09:00 Legend Double Dagger 7.6 5.8 88 13 13 16.1 97.87     Rain
10:00 Legend Double Dagger 7.7 6.3 91 13 11 11.3 97.81     Moderate Rain
11:00 Legend Double Dagger 8.6 7.4 92 14 13 16.1 97.75     Rain
12:00 Legend Double Dagger 9.3 8.4 94 15 15 8.1 97.67     Rain,Fog
13:00 Legend Double Dagger 10.1 9.3 95 15 21 16.1 97.52     Rain
14:00 Legend Double Dagger 11.2 10.4 95 16 18 16.1 97.43     LegendNANA
15:00 Legend Double Dagger 12.3 11.4 94 17 18 16.1 97.40     LegendNANA
16:00 Legend Double Dagger 12.3 11.4 94 15 18 16.1 97.29     Rain
17:00 Legend Double Dagger 12.3 11.5 95 15 13 16.1 97.17     LegendNANA
18:00 Legend Double Dagger 13.7 12.9 95 17 21 16.1 97.12     Rain
19:00 Legend Double Dagger 15.1 14.0 93 18 21 16.1 97.06     LegendNANA
20:00 Legend Double Dagger 15.8 14.6 92 18 22 16.1 96.94     LegendNANA
21:00 Legend Double Dagger 15.2 14.0 92 23 28 4.8 97.01     Moderate Rain,Fog
22:00 Legend Double Dagger 15.0 13.7 92 25 21 16.1 97.06     LegendNANA
23:00 Legend Double Dagger 14.6 12.7 88 27 22 16.1 97.09     LegendNANA

Notes on Data Quality.

Legend

  • E = Estimated
  • M = Missing
  • NA = Not Available
  • ‡ = Partner data that is not subject to review by the National Climate Archives
Date modified: